contact:dominique.lefevre@mio.osupytheas.fr, maurice.libes@osupytheas.fr, didier.mallarino@osupytheas.fr
Project:EMSO http://www.emso-fr.org/EMSO-France
Depth: 2436.0 m
Title:EMSO Ligure Ouest : Data MII capteur AQUADOPP
Date,Latitude,Longitude,X_East,Y_North,Z_Up,Amplitude_X,Amplitude_Y,Amplitude_Z,Batterie,SoundSpeed,Heading,Pitch,Roll,Pressure,TIS,Speed,Direction
, degrees North, degrees East, m.s-1, m.s-1,m.s-1, 1, 1, 1, Volt, m.s-1, degree, degree, degree, dbar, degree_C, m.s-1, degree
2022-02-26T00:04:03,42.805,6.029,0.006,0.012,0.0,103.0,104.0,102.0,13.4,1505.2,326.3,-0.7,1.8,2470.79,13.29,0.013,26.6
2022-02-26T00:07:03,42.805,6.029,-0.007,-0.005,-0.019,104.0,104.0,102.0,13.4,1505.2,326.7,-0.7,1.8,2470.775,13.29,0.008,234.5
2022-02-26T00:10:03,42.805,6.029,-0.004,-0.001,-0.038,103.0,104.0,103.0,13.4,1505.2,328.8,-0.8,1.8,2470.789,13.29,0.004,256.0
2022-02-26T00:13:03,42.805,6.029,-0.006,-0.009,0.016,104.0,103.0,101.0,13.4,1505.2,330.7,-0.8,1.8,2470.751,13.29,0.01,213.7
2022-02-26T00:16:03,42.805,6.029,0.001,0.01,-0.007,103.0,102.0,103.0,13.4,1505.2,325.4,-0.8,1.8,2470.783,13.29,0.01,5.7
2022-02-26T00:19:03,42.805,6.029,-0.014,0.012,-0.018,106.0,105.0,101.0,13.4,1505.2,325.3,-0.7,1.8,2470.76,13.29,0.018,310.6
2022-02-26T00:22:03,42.805,6.029,0.013,0.02,-0.012,103.0,103.0,103.0,13.4,1505.2,325.2,-0.8,1.8,2470.765,13.29,0.023,33.0
2022-02-26T00:25:03,42.805,6.029,-0.028,0.019,-0.039,103.0,105.0,102.0,13.4,1505.2,325.6,-0.7,1.8,2470.829,13.29,0.033,304.2
2022-02-26T00:28:03,42.805,6.029,-0.025,-0.001,-0.021,104.0,104.0,102.0,13.4,1505.2,326.1,-0.8,1.8,2470.76,13.29,0.025,267.7
2022-02-26T00:31:03,42.805,6.029,-0.005,0.0,-0.034,104.0,103.0,102.0,13.4,1505.2,328.3,-0.7,1.8,2470.757,13.29,0.005,270.0
2022-02-26T00:34:03,42.805,6.029,-0.014,-0.007,-0.007,104.0,103.0,102.0,13.4,1505.2,327.7,-0.8,1.8,2470.758,13.29,0.015,243.4
2022-02-26T00:37:03,42.805,6.029,-0.01,0.014,0.0,105.0,104.0,102.0,13.3,1505.2,331.6,-0.7,1.8,2470.774,13.29,0.017,324.5
2022-02-26T00:40:03,42.805,6.029,-0.014,0.014,-0.011,103.0,104.0,102.0,13.4,1505.2,329.6,-0.8,1.8,2470.778,13.29,0.019,315.0
2022-02-26T00:43:03,42.805,6.029,-0.013,0.013,-0.029,104.0,104.0,102.0,13.4,1505.2,326.4,-0.8,1.9,2470.771,13.29,0.018,315.0
2022-02-26T00:46:03,42.805,6.029,0.003,0.011,-0.017,105.0,102.0,102.0,13.4,1505.2,325.5,-0.7,1.8,2470.795,13.29,0.011,15.3
2022-02-26T00:49:03,42.805,6.029,-0.011,-0.01,-0.03,105.0,103.0,101.0,13.3,1505.2,329.6,-0.7,1.8,2470.73,13.29,0.014,227.7
2022-02-26T00:52:03,42.805,6.029,-0.019,0.017,-0.026,104.0,104.0,102.0,13.4,1505.2,324.1,-0.7,1.8,2470.773,13.29,0.025,311.8
2022-02-26T00:55:03,42.805,6.029,-0.03,0.002,-0.018,102.0,102.0,102.0,13.3,1505.2,323.4,-0.7,1.8,2470.738,13.29,0.03,273.8
2022-02-26T00:58:03,42.805,6.029,-0.008,-0.005,-0.026,104.0,103.0,102.0,13.4,1505.2,325.8,-0.8,1.8,2470.741,13.29,0.009,238.0
2022-02-26T01:04:03,42.805,6.029,-0.009,-0.004,-0.028,105.0,106.0,105.0,13.4,1505.2,328.2,-0.8,1.9,2470.819,13.29,0.009,246.0
2022-02-26T01:07:03,42.805,6.029,0.002,0.004,-0.004,103.0,102.0,103.0,13.4,1505.2,329.3,-0.8,1.8,2470.796,13.29,0.004,26.6
2022-02-26T01:10:03,42.805,6.029,-0.018,-0.008,0.015,103.0,103.0,103.0,13.4,1505.2,329.7,-0.7,1.9,2470.783,13.29,0.019,246.0
2022-02-26T01:13:03,42.805,6.029,-0.016,0.008,-0.015,104.0,103.0,103.0,13.4,1505.2,331.6,-0.7,1.8,2470.789,13.29,0.017,296.6
2022-02-26T01:16:03,42.805,6.029,-0.011,0.018,-0.034,103.0,102.0,102.0,13.4,1505.2,330.0,-0.8,1.8,2470.783,13.29,0.021,328.6
2022-02-26T01:19:03,42.805,6.029,-0.008,0.001,-0.026,103.0,102.0,102.0,13.4,1505.2,328.3,-0.8,1.8,2470.774,13.29,0.008,277.1
2022-02-26T01:22:03,42.805,6.029,-0.03,0.008,-0.017,104.0,103.0,102.0,13.4,1505.2,323.8,-0.8,1.8,2470.802,13.29,0.031,284.9
2022-02-26T01:25:03,42.805,6.029,-0.006,-0.006,0.001,103.0,102.0,101.0,13.4,1505.2,326.7,-0.7,1.8,2470.779,13.29,0.008,225.0
2022-02-26T01:28:03,42.805,6.029,-0.021,0.022,0.024,104.0,102.0,102.0,13.4,1505.2,329.3,-0.7,1.8,2470.776,13.29,0.03,316.3
2022-02-26T01:31:03,42.805,6.029,0.01,-0.01,-0.02,102.0,104.0,103.0,13.4,1505.2,326.7,-0.8,1.8,2470.811,13.29,0.014,135.0
2022-02-26T01:34:03,42.805,6.029,0.0,0.01,-0.018,102.0,104.0,102.0,13.3,1505.2,324.0,-0.7,1.8,2470.767,13.29,0.01,0.0
2022-02-26T01:37:03,42.805,6.029,-0.017,-0.005,0.0,105.0,104.0,101.0,13.3,1505.2,328.1,-0.8,1.8,2470.782,13.29,0.017,253.6
2022-02-26T01:40:03,42.805,6.029,-0.016,0.001,-0.021,102.0,102.0,102.0,13.4,1505.2,326.1,-0.8,1.8,2470.763,13.29,0.016,273.6
2022-02-26T01:43:03,42.805,6.029,-0.024,-0.002,0.001,102.0,104.0,101.0,13.4,1505.2,326.7,-0.7,1.8,2470.793,13.29,0.024,265.2
2022-02-26T01:46:03,42.805,6.029,-0.014,-0.02,-0.017,104.0,103.0,101.0,13.3,1505.2,326.3,-0.7,1.8,2470.762,13.29,0.024,215.0
2022-02-26T01:49:03,42.805,6.029,-0.017,0.003,0.01,103.0,103.0,103.0,13.4,1505.2,326.3,-0.7,1.8,2470.81,13.29,0.017,280.0
2022-02-26T01:52:03,42.805,6.029,0.008,0.01,-0.026,104.0,102.0,102.0,13.4,1505.2,328.3,-0.8,1.8,2470.773,13.29,0.012,38.7
2022-02-26T01:55:03,42.805,6.029,-0.009,0.014,-0.025,104.0,102.0,101.0,13.3,1505.2,323.6,-0.8,1.8,2470.788,13.29,0.016,327.3
2022-02-26T01:58:03,42.805,6.029,-0.02,-0.006,-0.018,102.0,104.0,101.0,13.4,1505.2,327.7,-0.8,1.8,2470.804,13.29,0.02,253.3
2022-02-26T02:04:03,42.805,6.029,-0.004,-0.001,-0.002,103.0,103.0,101.0,13.4,1505.2,328.0,-0.7,1.8,2470.868,13.29,0.004,256.0
2022-02-26T02:07:03,42.805,6.029,-0.022,0.009,-0.016,103.0,103.0,101.0,13.3,1505.2,327.2,-0.8,1.8,2470.83,13.29,0.023,292.2
2022-02-26T02:10:03,42.805,6.029,-0.019,0.015,-0.022,102.0,103.0,102.0,13.4,1505.2,329.2,-0.8,1.8,2470.859,13.29,0.024,308.3
2022-02-26T02:13:03,42.805,6.029,-0.004,0.013,-0.002,104.0,104.0,101.0,13.4,1505.2,326.3,-0.7,1.8,2470.831,13.29,0.013,342.9
2022-02-26T02:16:03,42.805,6.029,-0.012,0.014,-0.005,104.0,104.0,101.0,13.4,1505.2,327.3,-0.7,1.9,2470.834,13.29,0.018,319.4
2022-02-26T02:19:03,42.805,6.029,0.003,0.005,0.0,104.0,104.0,101.0,13.3,1505.2,327.9,-0.8,1.8,2470.79,13.29,0.005,31.0
2022-02-26T02:22:03,42.805,6.029,-0.027,0.016,0.003,106.0,105.0,102.0,13.4,1505.2,323.7,-0.7,1.8,2470.792,13.29,0.031,300.7
2022-02-26T02:25:03,42.805,6.029,-0.037,0.003,-0.013,104.0,102.0,103.0,13.4,1505.2,325.4,-0.7,1.8,2470.799,13.29,0.037,274.6
2022-02-26T02:28:03,42.805,6.029,-0.036,0.004,-0.05,105.0,102.0,104.0,13.4,1505.2,324.7,-0.8,1.8,2470.821,13.29,0.036,276.3
2022-02-26T02:31:03,42.805,6.029,-0.021,0.005,-0.013,103.0,104.0,101.0,13.4,1505.2,329.5,-0.7,1.8,2470.796,13.29,0.021,283.4
2022-02-26T02:34:03,42.805,6.029,-0.017,0.007,-0.003,103.0,104.0,102.0,13.3,1505.2,326.3,-0.8,1.8,2470.852,13.29,0.018,292.4
2022-02-26T02:37:03,42.805,6.029,-0.032,0.005,-0.046,104.0,103.0,101.0,13.4,1505.2,328.5,-0.8,1.8,2470.857,13.29,0.032,278.9
2022-02-26T02:40:03,42.805,6.029,-0.003,0.025,-0.008,104.0,102.0,102.0,13.4,1505.2,325.1,-0.8,1.8,2470.803,13.29,0.025,353.2
2022-02-26T02:43:03,42.805,6.029,-0.018,0.001,0.019,104.0,104.0,102.0,13.4,1505.2,325.0,-0.8,1.8,2470.828,13.29,0.018,273.2
2022-02-26T02:46:03,42.805,6.029,-0.03,0.021,-0.02,102.0,103.0,102.0,13.3,1505.2,331.0,-0.7,1.8,2470.836,13.29,0.036,305.0
2022-02-26T02:49:03,42.805,6.029,-0.016,0.004,-0.002,103.0,103.0,102.0,13.4,1505.2,323.9,-0.8,1.8,2470.817,13.29,0.016,284.0
2022-02-26T02:52:03,42.805,6.029,-0.012,0.008,-0.008,105.0,103.0,102.0,13.4,1505.2,326.0,-0.8,1.8,2470.804,13.29,0.014,303.7
2022-02-26T02:55:03,42.805,6.029,-0.029,0.019,-0.028,105.0,103.0,101.0,13.4,1505.2,326.9,-0.7,1.8,2470.848,13.29,0.034,303.2
2022-02-26T02:58:03,42.805,6.029,-0.025,0.013,-0.031,104.0,104.0,102.0,13.4,1505.2,326.3,-0.8,1.8,2470.843,13.29,0.028,297.5
2022-02-26T03:04:03,42.805,6.029,0.002,-0.016,-0.023,104.0,103.0,102.0,13.3,1505.2,326.7,-0.7,1.9,2470.839,13.28,0.016,172.9
2022-02-26T03:07:03,42.805,6.029,0.0,-0.003,0.003,104.0,104.0,102.0,13.3,1505.2,329.2,-0.7,1.8,2470.824,13.28,0.003,180.0
2022-02-26T03:10:03,42.805,6.029,-0.019,0.016,-0.011,104.0,104.0,102.0,13.4,1505.2,331.6,-0.8,1.9,2470.817,13.29,0.024,310.1
2022-02-26T03:13:03,42.805,6.029,-0.01,-0.008,0.017,104.0,103.0,103.0,13.4,1505.2,326.9,-0.8,1.8,2470.833,13.29,0.012,231.3
2022-02-26T03:16:03,42.805,6.029,-0.007,0.004,0.015,104.0,105.0,103.0,13.4,1505.2,327.4,-0.8,1.8,2470.849,13.29,0.008,299.7
2022-02-26T03:19:03,42.805,6.029,-0.014,-0.007,0.0,103.0,103.0,103.0,13.3,1505.2,326.9,-0.8,1.8,2470.827,13.29,0.015,243.4
2022-02-26T03:22:03,42.805,6.029,-0.056,0.004,-0.014,103.0,103.0,101.0,13.4,1505.2,329.5,-0.8,1.8,2470.853,13.29,0.056,274.1
2022-02-26T03:25:03,42.805,6.029,-0.025,0.009,0.01,103.0,102.0,102.0,13.3,1505.2,325.5,-0.7,1.8,2470.85,13.29,0.026,289.8
2022-02-26T03:28:03,42.805,6.029,-0.046,0.0,-0.018,104.0,103.0,102.0,13.4,1505.2,326.8,-0.7,1.8,2470.874,13.29,0.046,270.0
2022-02-26T03:31:03,42.805,6.029,-0.026,-0.01,-0.012,104.0,103.0,101.0,13.4,1505.2,328.5,-0.8,1.8,2470.844,13.29,0.027,249.0
2022-02-26T03:34:03,42.805,6.029,-0.042,0.012,0.027,103.0,104.0,102.0,13.4,1505.2,328.8,-0.7,1.8,2470.876,13.29,0.043,285.9
2022-02-26T03:37:03,42.805,6.029,-0.023,0.0,-0.003,104.0,105.0,101.0,13.3,1505.2,323.3,-0.7,1.8,2470.8,13.29,0.023,270.0
2022-02-26T03:40:03,42.805,6.029,-0.036,0.014,0.0,104.0,103.0,102.0,13.4,1505.2,327.2,-0.7,1.8,2470.835,13.29,0.038,291.2
2022-02-26T03:43:03,42.805,6.029,-0.037,0.002,-0.025,102.0,104.0,103.0,13.4,1505.2,325.3,-0.8,1.8,2470.838,13.29,0.037,273.1
2022-02-26T03:46:03,42.805,6.029,-0.026,0.001,-0.022,103.0,104.0,102.0,13.3,1505.2,325.4,-0.7,1.8,2470.846,13.29,0.026,272.2
2022-02-26T03:49:03,42.805,6.029,-0.008,0.012,0.008,106.0,103.0,102.0,13.3,1505.2,327.3,-0.8,1.8,2470.869,13.29,0.014,326.3
2022-02-26T03:52:03,42.805,6.029,-0.042,0.004,-0.029,105.0,104.0,101.0,13.3,1505.2,328.8,-0.8,1.8,2470.788,13.29,0.042,275.4
2022-02-26T03:55:03,42.805,6.029,-0.029,-0.011,-0.041,104.0,104.0,101.0,13.4,1505.2,325.5,-0.7,1.8,2470.834,13.29,0.031,249.2
2022-02-26T03:58:03,42.805,6.029,-0.022,0.018,-0.02,104.0,105.0,102.0,13.3,1505.2,331.7,-0.8,1.8,2470.817,13.29,0.028,309.3
2022-02-26T04:04:03,42.805,6.029,-0.026,-0.009,0.007,106.0,102.0,102.0,13.4,1505.2,328.7,-0.8,1.8,2470.859,13.28,0.027,250.9
2022-02-26T04:07:03,42.805,6.029,-0.025,0.027,-0.004,104.0,105.0,102.0,13.4,1505.2,331.4,-0.8,1.8,2470.882,13.29,0.036,317.2
2022-02-26T04:10:03,42.805,6.029,-0.03,0.004,-0.001,104.0,104.0,101.0,13.4,1505.2,324.8,-0.7,1.8,2470.837,13.29,0.03,277.6
2022-02-26T04:13:03,42.805,6.029,-0.038,0.004,-0.019,104.0,104.0,102.0,13.4,1505.2,329.8,-0.7,1.8,2470.9,13.29,0.038,276.0
2022-02-26T04:16:03,42.805,6.029,-0.027,0.013,0.016,102.0,104.0,102.0,13.4,1505.2,324.0,-0.8,1.8,2470.832,13.29,0.029,295.7
2022-02-26T04:19:03,42.805,6.029,-0.024,-0.01,-0.026,104.0,104.0,102.0,13.4,1505.2,328.7,-0.7,1.8,2470.878,13.29,0.026,247.4
2022-02-26T04:22:03,42.805,6.029,-0.037,0.03,0.028,104.0,103.0,102.0,13.4,1505.2,327.4,-0.7,1.8,2470.875,13.29,0.047,309.0
2022-02-26T04:25:03,42.805,6.029,-0.034,0.02,0.007,104.0,104.0,102.0,13.4,1505.2,328.0,-0.7,1.8,2470.862,13.29,0.039,300.5
2022-02-26T04:28:03,42.805,6.029,-0.027,0.007,0.006,103.0,103.0,102.0,13.4,1505.2,327.2,-0.7,1.8,2470.854,13.29,0.027,284.5
2022-02-26T04:31:03,42.805,6.029,-0.023,-0.003,0.009,104.0,102.0,103.0,13.4,1505.2,326.7,-0.7,1.8,2470.826,13.29,0.023,262.6
2022-02-26T04:34:03,42.805,6.029,-0.016,0.006,0.027,103.0,103.0,103.0,13.4,1505.2,328.6,-0.7,1.8,2470.852,13.29,0.017,290.6
2022-02-26T04:37:03,42.805,6.029,-0.026,-0.003,0.004,105.0,106.0,101.0,13.4,1505.2,325.4,-0.8,1.8,2470.913,13.29,0.026,263.4
2022-02-26T04:40:03,42.805,6.029,-0.019,0.015,0.0,103.0,104.0,101.0,13.4,1505.2,328.8,-0.7,1.8,2470.832,13.29,0.024,308.3
2022-02-26T04:43:03,42.805,6.029,-0.029,0.017,-0.007,104.0,103.0,103.0,13.4,1505.2,331.9,-0.7,1.8,2470.842,13.29,0.033,300.4
2022-02-26T04:46:03,42.805,6.029,-0.035,-0.004,-0.025,103.0,103.0,103.0,13.4,1505.2,330.4,-0.7,1.8,2470.874,13.29,0.035,263.5
2022-02-26T04:49:03,42.805,6.029,-0.019,0.005,-0.013,105.0,103.0,102.0,13.4,1505.2,326.4,-0.8,1.8,2470.863,13.29,0.019,284.7
2022-02-26T04:52:03,42.805,6.029,-0.022,0.011,-0.001,103.0,103.0,102.0,13.3,1505.2,324.9,-0.8,1.8,2470.895,13.29,0.024,296.6
2022-02-26T04:55:03,42.805,6.029,-0.017,0.015,-0.014,104.0,105.0,102.0,13.3,1505.2,328.2,-0.8,1.8,2470.815,13.29,0.022,311.4
2022-02-26T04:58:03,42.805,6.029,-0.029,-0.009,-0.004,104.0,104.0,103.0,13.4,1505.2,327.5,-0.8,1.8,2470.823,13.29,0.03,252.8
2022-02-26T05:04:03,42.805,6.029,-0.026,0.014,0.036,105.0,105.0,102.0,13.3,1505.2,326.5,-0.8,1.8,2470.86,13.29,0.029,298.3
2022-02-26T05:07:03,42.805,6.029,-0.025,0.016,0.005,104.0,104.0,102.0,13.4,1505.2,325.7,-0.7,1.8,2470.853,13.29,0.029,302.6
2022-02-26T05:10:03,42.805,6.029,-0.026,0.005,-0.026,104.0,104.0,103.0,13.4,1505.2,325.2,-0.8,1.8,2470.895,13.29,0.026,280.9
2022-02-26T05:13:03,42.805,6.029,-0.031,0.006,0.0,105.0,104.0,102.0,13.4,1505.2,328.2,-0.7,1.8,2470.868,13.29,0.031,281.0
2022-02-26T05:16:03,42.805,6.029,-0.051,0.023,0.006,104.0,103.0,102.0,13.3,1505.2,324.2,-0.8,1.8,2470.834,13.29,0.055,294.3
2022-02-26T05:19:03,42.805,6.029,-0.026,0.024,0.008,105.0,104.0,103.0,13.4,1505.2,330.0,-0.8,1.8,2470.828,13.29,0.035,312.7
2022-02-26T05:22:03,42.805,6.029,-0.003,0.011,0.012,104.0,104.0,103.0,13.4,1505.2,330.2,-0.8,1.8,2470.866,13.29,0.011,344.7
2022-02-26T05:25:03,42.805,6.029,-0.032,0.02,0.003,104.0,104.0,102.0,13.3,1505.2,330.9,-0.8,1.9,2470.868,13.29,0.037,302.0
2022-02-26T05:28:03,42.805,6.029,-0.019,0.001,-0.02,104.0,103.0,102.0,13.4,1505.2,332.0,-0.7,1.8,2470.833,13.29,0.019,273.0
2022-02-26T05:31:03,42.805,6.029,-0.03,0.005,-0.012,104.0,103.0,103.0,13.4,1505.2,330.0,-0.8,1.8,2470.829,13.29,0.03,279.5
2022-02-26T05:34:03,42.805,6.029,-0.014,0.008,0.003,104.0,104.0,103.0,13.4,1505.2,332.2,-0.7,1.8,2470.869,13.29,0.016,299.7
2022-02-26T05:37:03,42.805,6.029,-0.023,0.019,0.02,104.0,104.0,101.0,13.3,1505.2,327.1,-0.8,1.8,2470.813,13.29,0.029,309.6
2022-02-26T05:40:03,42.805,6.029,-0.02,0.004,-0.028,103.0,104.0,101.0,13.4,1505.2,330.9,-0.7,1.8,2470.829,13.29,0.02,281.3
2022-02-26T05:43:03,42.805,6.029,-0.02,0.009,-0.006,106.0,104.0,102.0,13.3,1505.2,331.1,-0.7,1.8,2470.828,13.29,0.021,294.2
2022-02-26T05:46:03,42.805,6.029,-0.029,0.012,-0.001,104.0,105.0,102.0,13.4,1505.2,331.1,-0.7,1.8,2470.82,13.29,0.031,292.5
2022-02-26T05:49:03,42.805,6.029,-0.021,0.05,0.045,105.0,105.0,102.0,13.3,1505.2,329.8,-0.8,1.8,2470.838,13.29,0.054,337.2
2022-02-26T05:52:03,42.805,6.029,-0.035,0.01,0.013,103.0,103.0,102.0,13.4,1505.2,328.3,-0.8,1.8,2470.851,13.29,0.036,285.9
2022-02-26T05:55:03,42.805,6.029,-0.014,0.008,0.001,103.0,104.0,101.0,13.3,1505.2,323.2,-0.8,1.8,2470.819,13.29,0.016,299.7
2022-02-26T05:58:03,42.805,6.029,-0.017,0.001,0.008,104.0,105.0,102.0,13.4,1505.2,331.3,-0.8,1.8,2470.849,13.29,0.017,273.4
2022-02-26T06:04:03,42.805,6.029,-0.012,0.011,0.012,104.0,104.0,103.0,13.4,1505.2,329.2,-0.8,1.8,2470.865,13.29,0.016,312.5
2022-02-26T06:07:03,42.805,6.029,-0.031,0.01,0.035,103.0,105.0,102.0,13.4,1505.2,326.7,-0.8,1.9,2470.846,13.29,0.032,287.9
2022-02-26T06:10:03,42.805,6.029,-0.005,0.016,0.006,103.0,104.0,103.0,13.4,1505.2,323.6,-0.8,1.8,2470.833,13.29,0.016,342.6
2022-02-26T06:13:03,42.805,6.029,0.005,0.001,-0.01,103.0,104.0,103.0,13.4,1505.2,327.6,-0.8,1.8,2470.81,13.29,0.005,78.7
2022-02-26T06:16:03,42.805,6.029,-0.021,0.015,-0.013,105.0,103.0,103.0,13.3,1505.2,328.4,-0.8,1.8,2470.857,13.29,0.025,305.5
2022-02-26T06:19:03,42.805,6.029,-0.018,0.003,-0.008,103.0,105.0,103.0,13.4,1505.2,325.5,-0.8,1.8,2470.877,13.29,0.018,279.5
2022-02-26T06:22:03,42.805,6.029,-0.041,0.025,0.015,105.0,102.0,102.0,13.4,1505.2,331.9,-0.7,1.8,2470.85,13.29,0.048,301.4
2022-02-26T06:25:03,42.805,6.029,-0.032,0.013,-0.013,105.0,103.0,102.0,13.4,1505.2,326.3,-0.7,1.8,2470.837,13.29,0.034,292.1
2022-02-26T06:28:03,42.805,6.029,-0.032,-0.011,-0.018,104.0,105.0,103.0,13.4,1505.2,331.4,-0.7,1.8,2470.834,13.29,0.033,251.0
2022-02-26T06:31:03,42.805,6.029,-0.026,0.016,-0.003,104.0,103.0,102.0,13.4,1505.2,328.0,-0.7,1.8,2470.823,13.29,0.03,301.6
2022-02-26T06:34:03,42.805,6.029,-0.038,0.009,0.015,105.0,104.0,102.0,13.4,1505.2,325.6,-0.8,1.8,2470.841,13.29,0.039,283.3
2022-02-26T06:37:03,42.805,6.029,-0.03,0.018,-0.04,105.0,104.0,104.0,13.4,1505.2,327.1,-0.7,1.8,2470.845,13.29,0.034,301.0
2022-02-26T06:40:03,42.805,6.029,-0.034,0.002,0.009,103.0,104.0,102.0,13.3,1505.2,324.3,-0.8,1.8,2470.845,13.29,0.034,273.4
2022-02-26T06:43:03,42.805,6.029,-0.038,0.005,-0.021,104.0,104.0,103.0,13.4,1505.2,330.1,-0.8,1.8,2470.824,13.29,0.038,277.5
2022-02-26T06:46:03,42.805,6.029,-0.011,0.012,0.003,104.0,102.0,103.0,13.3,1505.2,328.9,-0.8,1.8,2470.79,13.29,0.016,317.5
2022-02-26T06:49:03,42.805,6.029,-0.015,0.005,-0.005,105.0,104.0,101.0,13.4,1505.2,323.4,-0.7,1.8,2470.814,13.29,0.015,288.4
2022-02-26T06:52:03,42.805,6.029,-0.038,0.007,0.037,104.0,106.0,102.0,13.4,1505.2,326.0,-0.8,1.8,2470.837,13.29,0.038,280.4
2022-02-26T06:55:03,42.805,6.029,-0.011,0.004,0.009,107.0,104.0,102.0,13.4,1505.2,326.3,-0.7,1.8,2470.826,13.29,0.011,290.0
2022-02-26T06:58:03,42.805,6.029,-0.031,-0.005,-0.015,105.0,103.0,103.0,13.4,1505.2,328.3,-0.8,1.8,2470.81,13.29,0.031,260.8
2022-02-26T07:04:03,42.805,6.029,-0.017,0.018,-0.006,106.0,103.0,103.0,13.4,1505.2,323.7,-0.7,1.8,2470.84,13.29,0.024,316.6
2022-02-26T07:07:03,42.805,6.029,-0.014,0.018,0.009,104.0,104.0,102.0,13.3,1505.2,329.3,-0.8,1.8,2470.833,13.29,0.022,322.1
2022-02-26T07:10:03,42.805,6.029,-0.035,-0.011,-0.015,104.0,104.0,101.0,13.4,1505.2,328.8,-0.7,1.8,2470.849,13.29,0.036,252.6
2022-02-26T07:13:03,42.805,6.029,-0.027,0.011,0.002,104.0,104.0,103.0,13.3,1505.2,329.9,-0.7,1.8,2470.825,13.29,0.029,292.2
2022-02-26T07:16:03,42.805,6.029,-0.024,0.005,0.001,103.0,104.0,103.0,13.4,1505.2,326.6,-0.8,1.8,2470.828,13.29,0.024,281.8
2022-02-26T07:19:03,42.805,6.029,-0.013,0.0,0.011,105.0,103.0,101.0,13.4,1505.2,328.6,-0.8,1.8,2470.827,13.29,0.013,270.0
2022-02-26T07:22:03,42.805,6.029,-0.021,0.024,0.004,104.0,102.0,103.0,13.4,1505.2,328.5,-0.8,1.8,2470.778,13.29,0.031,318.8
2022-02-26T07:25:03,42.805,6.029,-0.024,0.005,0.003,103.0,104.0,101.0,13.4,1505.2,329.5,-0.7,1.8,2470.762,13.29,0.024,281.8
2022-02-26T07:28:03,42.805,6.029,-0.044,0.011,0.0,104.0,104.0,102.0,13.4,1505.2,327.9,-0.8,1.9,2470.814,13.29,0.045,284.0
2022-02-26T07:31:03,42.805,6.029,-0.043,0.015,-0.003,102.0,104.0,103.0,13.4,1505.2,331.3,-0.7,1.8,2470.825,13.29,0.045,289.2
2022-02-26T07:34:03,42.805,6.029,-0.032,0.019,0.004,104.0,105.0,101.0,13.3,1505.2,323.6,-0.8,1.8,2470.794,13.29,0.037,300.7
2022-02-26T07:37:03,42.805,6.029,-0.008,0.012,-0.001,103.0,104.0,102.0,13.4,1505.2,324.4,-0.7,1.8,2470.796,13.29,0.014,326.3
2022-02-26T07:40:03,42.805,6.029,-0.036,0.02,0.007,103.0,103.0,103.0,13.4,1505.2,324.1,-0.8,1.8,2470.792,13.29,0.041,299.1
2022-02-26T07:43:03,42.805,6.029,-0.036,0.014,-0.009,105.0,102.0,103.0,13.3,1505.2,328.5,-0.8,1.8,2470.775,13.29,0.038,291.2
2022-02-26T07:46:03,42.805,6.029,-0.044,0.024,0.01,104.0,104.0,101.0,13.3,1505.2,327.1,-0.7,1.9,2470.817,13.29,0.05,298.6
2022-02-26T07:49:03,42.805,6.029,-0.049,0.021,0.012,105.0,105.0,102.0,13.4,1505.2,325.5,-0.8,1.8,2470.78,13.29,0.053,293.2
2022-02-26T07:52:03,42.805,6.029,-0.038,0.01,-0.006,102.0,104.0,103.0,13.4,1505.2,328.5,-0.8,1.8,2470.783,13.29,0.039,284.7
2022-02-26T07:55:03,42.805,6.029,-0.014,0.012,0.0,105.0,108.0,102.0,13.4,1505.2,326.7,-0.7,1.8,2470.763,13.29,0.018,310.6
2022-02-26T07:58:03,42.805,6.029,-0.036,0.004,0.016,105.0,103.0,102.0,13.4,1505.2,328.6,-0.7,1.8,2470.793,13.29,0.036,276.3
2022-02-26T08:04:03,42.805,6.029,-0.031,0.012,0.004,103.0,104.0,101.0,13.3,1505.2,329.6,-0.8,1.8,2470.821,13.29,0.033,291.2
2022-02-26T08:07:03,42.805,6.029,-0.034,0.016,-0.02,104.0,102.0,103.0,13.4,1505.2,331.6,-0.8,1.8,2470.793,13.29,0.037,295.2
2022-02-26T08:10:03,42.805,6.029,-0.031,0.019,-0.007,104.0,104.0,101.0,13.4,1505.2,323.7,-0.8,1.8,2470.804,13.29,0.036,301.5
2022-02-26T08:13:03,42.805,6.029,-0.028,0.0,-0.007,103.0,104.0,103.0,13.3,1505.2,327.6,-0.7,1.8,2470.801,13.29,0.028,270.0
2022-02-26T08:16:03,42.805,6.029,-0.021,-0.001,-0.004,104.0,103.0,102.0,13.4,1505.2,324.8,-0.7,1.8,2470.757,13.29,0.021,267.3
2022-02-26T08:19:03,42.805,6.029,-0.028,0.015,-0.019,103.0,104.0,103.0,13.4,1505.2,324.3,-0.8,1.8,2470.796,13.29,0.031,298.2
2022-02-26T08:22:03,42.805,6.029,-0.028,0.001,-0.013,104.0,103.0,102.0,13.3,1505.2,324.8,-0.8,1.8,2470.79,13.29,0.028,272.0
2022-02-26T08:25:03,42.805,6.029,-0.014,0.002,-0.004,105.0,104.0,102.0,13.3,1505.2,328.8,-0.8,1.8,2470.804,13.29,0.014,278.1
2022-02-26T08:28:03,42.805,6.029,-0.017,0.006,-0.008,103.0,105.0,102.0,13.4,1505.2,327.6,-0.8,1.8,2470.822,13.29,0.018,289.4
2022-02-26T08:31:03,42.805,6.029,-0.009,0.002,-0.012,105.0,104.0,103.0,13.4,1505.2,329.0,-0.7,1.8,2470.788,13.29,0.009,282.5
2022-02-26T08:34:03,42.805,6.029,0.005,-0.006,-0.026,103.0,104.0,102.0,13.4,1505.2,326.1,-0.8,1.8,2470.766,13.29,0.007,140.2
2022-02-26T08:37:03,42.805,6.029,-0.017,-0.012,-0.022,103.0,104.0,102.0,13.4,1505.2,326.6,-0.8,1.8,2470.785,13.29,0.02,234.8
2022-02-26T08:40:03,42.805,6.029,-0.016,0.011,0.015,104.0,105.0,102.0,13.4,1505.2,329.1,-0.8,1.8,2470.77,13.29,0.019,304.5
2022-02-26T08:43:03,42.805,6.029,-0.015,0.021,-0.006,104.0,104.0,102.0,13.4,1505.2,324.4,-0.8,1.8,2470.768,13.29,0.025,324.5
2022-02-26T08:46:03,42.805,6.029,-0.027,0.003,-0.006,104.0,103.0,102.0,13.4,1505.2,328.1,-0.8,1.8,2470.75,13.29,0.027,276.3
2022-02-26T08:49:03,42.805,6.029,-0.021,0.012,-0.012,104.0,104.0,101.0,13.4,1505.2,326.2,-0.8,1.9,2470.742,13.29,0.024,299.7
2022-02-26T08:52:03,42.805,6.029,-0.023,-0.005,-0.015,104.0,103.0,102.0,13.4,1505.2,327.7,-0.7,1.8,2470.767,13.29,0.023,257.7
2022-02-26T08:55:03,42.805,6.029,-0.009,-0.001,0.029,103.0,103.0,102.0,13.4,1505.2,326.3,-0.7,1.8,2470.746,13.29,0.009,263.7
2022-02-26T08:58:03,42.805,6.029,0.006,0.012,0.008,103.0,104.0,104.0,13.3,1505.2,326.7,-0.7,1.8,2470.746,13.29,0.013,26.6
2022-02-26T09:04:03,42.805,6.029,-0.019,0.004,-0.005,103.0,103.0,102.0,13.3,1505.2,328.3,-0.7,1.8,2470.81,13.28,0.019,281.9
2022-02-26T09:07:03,42.805,6.029,-0.014,-0.011,-0.006,104.0,103.0,102.0,13.4,1505.2,322.8,-0.8,1.8,2470.76,13.28,0.017,231.8
2022-02-26T09:10:03,42.805,6.029,-0.017,0.003,-0.034,104.0,104.0,102.0,13.3,1505.2,324.2,-0.8,1.8,2470.789,13.29,0.017,280.0
2022-02-26T09:13:03,42.805,6.029,-0.009,-0.014,-0.021,103.0,103.0,102.0,13.3,1505.2,325.5,-0.7,1.8,2470.834,13.29,0.016,212.7
2022-02-26T09:16:03,42.805,6.029,-0.011,-0.013,-0.009,103.0,103.0,102.0,13.4,1505.2,327.7,-0.7,1.8,2470.787,13.29,0.017,220.2
2022-02-26T09:19:03,42.805,6.029,-0.026,0.001,-0.002,103.0,103.0,102.0,13.4,1505.2,325.5,-0.7,1.8,2470.804,13.29,0.026,272.2
2022-02-26T09:22:03,42.805,6.029,0.0,0.018,0.023,105.0,104.0,101.0,13.4,1505.2,331.2,-0.7,1.8,2470.785,13.29,0.018,0.0
2022-02-26T09:25:03,42.805,6.029,-0.017,0.018,0.023,104.0,103.0,102.0,13.3,1505.2,326.8,-0.7,1.8,2470.779,13.29,0.024,316.6
2022-02-26T09:28:03,42.805,6.029,-0.044,0.008,-0.003,104.0,103.0,102.0,13.4,1505.2,326.4,-0.8,1.8,2470.767,13.29,0.044,280.3
2022-02-26T09:31:03,42.805,6.029,-0.012,0.006,-0.024,104.0,102.0,103.0,13.4,1505.2,332.3,-0.8,1.8,2470.775,13.29,0.013,296.6
2022-02-26T09:34:03,42.805,6.029,-0.01,0.003,-0.015,105.0,102.0,102.0,13.3,1505.2,327.5,-0.8,1.8,2470.763,13.29,0.01,286.7
2022-02-26T09:37:03,42.805,6.029,-0.03,0.014,-0.004,105.0,103.0,102.0,13.3,1505.2,322.9,-0.8,1.8,2470.747,13.29,0.033,295.0
2022-02-26T09:40:03,42.805,6.029,0.0,0.023,0.019,104.0,104.0,102.0,13.3,1505.2,330.2,-0.8,1.8,2470.759,13.29,0.023,0.0
2022-02-26T09:43:03,42.805,6.029,-0.02,0.008,-0.008,104.0,104.0,102.0,13.4,1505.2,324.0,-0.7,1.8,2470.762,13.29,0.021,291.8
2022-02-26T09:46:03,42.805,6.029,-0.001,0.015,-0.007,103.0,104.0,102.0,13.4,1505.2,326.3,-0.8,1.8,2470.775,13.29,0.015,356.2
2022-02-26T09:49:03,42.805,6.029,-0.003,0.013,0.006,103.0,104.0,102.0,13.4,1505.2,331.6,-0.8,1.8,2470.739,13.29,0.013,347.0
2022-02-26T09:52:03,42.805,6.029,-0.008,0.005,-0.003,102.0,104.0,102.0,13.3,1505.2,331.3,-0.8,1.8,2470.774,13.29,0.009,302.0
2022-02-26T09:55:03,42.805,6.029,-0.027,0.007,-0.005,103.0,103.0,102.0,13.4,1505.2,331.0,-0.8,1.8,2470.748,13.29,0.027,284.5